Погода в Бобровке

Россия / Новосибирская область     53˚56′01″N   82˚07′09″E
темп.,
°C
ветер,
м/с
пор.,
м/с
влажн.,
%
обл.,
%
осадки,
мм/ч
давл.,
гПа
погр.,
м
17 января, вс
вс1701:00−15˚ю6118195 0.0 1021230
04:00−14˚ю7147798 0.0 1017298
07:00−13˚ю7167499 0.0 1014356
10:00−12˚ююз71681100 0.0 1012424
13:00−10˚юз81588100 0.0 1012545
16:00−8˚зюз81492100 0.1 1014577
19:00−9˚юз71294100 0.2 1018418
22:00−10˚юз61297100 0.1 1018319
18 января, пн
пн1801:00−12˚ююз71498100 0.1 1017316
04:00−12˚ююз71695100 0.0 1014392
07:00−9˚юз81692100 0.0 1011532
10:00−9˚зюз71494100 0.2 1011524
13:00−9˚зюз71492100 0.3 1012740
16:00−11˚з61189100 0.1 1014781
19:00−16˚зюз5129592 0.1 1018338
22:00−19˚з499991 0.0 1020191
19 января, вт
вт1901:00−22˚з459976 0.0 102371
04:00−24˚зюз339833 0.0 102427
07:00−24˚юз239616 0.0 102420
10:00−25˚ю34981 0.0 102434
13:00−20˚ю349750 0.0 1023133
16:00−19˚ююз239580 0.0 102199
19:00−21˚ююз229190 0.0 102020
22:00−22˚з1289100 0.0 102020
20 января, ср
ср2001:00−20˚сз2290100 0.0 102025
04:00−19˚с2392100 0.0 1021104
07:00−22˚ссв3495100 0.0 102178
10:00−23˚св4695100 0.0 1023134
13:00−21˚всв4695100 0.0 1023173
16:00−20˚всв469297 0.0 1022179
19:00−19˚в479199 0.0 1021188
22:00−17˚в4697100 0.3 1019190
21 января, чт
чт2101:00−16˚всв2397100 1.1 101893
04:00−17˚с1197100 0.1 101820
07:00−18˚з2298100 0.2 101920
10:00−18˚юз1198100 0.0 101920
13:00−15˚ююв2397100 0.1 1016149
16:00−12˚ююв3495100 0.2 1012174
19:00−11˚вюв1296100 1.9 100997
22:00−10˚ссз2396100 1.4 100691